Location: Jefferson
(30.9666°N, 81.7901°W)
Time: 08:20:46
(UTC+00:00)

ARIANE 6 FM1 Upper Stage - Pass Details

Date: 21 September 2024
Orbit: 563 x 595 km, 62.0° (Epoch: 12 October)

Event Time Altitude Azimuth Distance (km) Brightness Sun altitude
Rises 00:36:01 0° 213° (SSW) 2,752 6.5 -15.9°
Reaches altitude 10° 00:38:14 10° 214° (SW) 1,863 5.6 -16.3°
Maximum altitude 00:42:26 78° 300° (WNW) 590 2.8 -17.2°
Drops below altitude 10° 00:46:43 10° 28° (NNE) 1,894 5.2 -18.1°
Enters shadow 00:48:24 - 29° (NNE) 2,571 5.9 -18.5°
